E0445 Weather Reports


Display with metric or nautical units.
time (UTC)temp
F
wind
direction
speed
MPH
gust
MPH
rain 1hr
in
rain 24hr
in
rain mn
in
humidity
%
barometer
mb
20260510102013 46 0 0.0 0.0 0.00 0.39 0.00 97 1010.6
20260510101527 46 0 0.0 0.0 0.00 0.39 0.00 97 1010.6
20260510101010 46 0 0.0 0.0 0.00 0.39 0.00 97 1010.5
20260510100513 46 0 0.0 0.0 0.00 0.39 0.00 97 1010.5
20260510100034 47 0 0.0 0.0 0.00 0.39 0.00 97 1010.3
20260510095512 47 0 0.0 0.0 0.00 0.43 0.00 97 1010.3
20260510095012 47 0 0.0 0.0 0.00 0.43 0.00 97 1010.3
20260510094530 47 0 0.0 0.0 0.00 0.43 0.00 97 1010.3
20260510094012 46 0 0.0 0.0 0.00 0.43 0.00 97 1010.3
20260510093512 46 0 0.0 0.0 0.00 0.43 0.00 97 1010.4
20260510093036 46 0 0.0 0.0 0.00 0.43 0.00 97 1010.2
20260510092510 46 0 0.0 0.0 0.00 0.43 0.00 97 1010.3
20260510092011 46 0 0.0 0.0 0.00 0.43 0.00 97 1010.1
20260510091529 46 0 0.0 0.0 0.00 0.43 0.00 97 1010.1
20260510091011 46 0 0.0 0.0 0.00 0.43 0.00 97 1010.1
20260510090512 46 0 0.0 0.0 0.00 0.43 0.00 97 1010.1
20260510090031 46 0 0.0 0.0 0.00 0.43 0.00 97 1010.0
20260510085509 46 0 0.0 0.0 0.00 0.47 0.00 97 1010.0
20260510085014 46 0 0.0 0.0 0.00 0.47 0.00 97 1010.1
20260510084532 46 0 0.0 2.0 0.00 0.47 0.00 97 1010.0
20260510084011 46 0 0.0 2.0 0.00 0.47 0.00 97 1010.0
20260510083510 46 143 0.0 2.0 0.00 0.47 0.00 97 1009.9
20260510083029 46 0 0.0 0.0 0.00 0.47 0.00 97 1009.9
20260510082511 46 0 0.0 0.0 0.00 0.47 0.00 97 1009.8
20260510082011 46 0 0.0 1.0 0.00 0.47 0.00 97 1009.8
20260510081527 46 0 0.0 2.0 0.00 0.47 0.00 97 1009.8
20260510081010 47 0 0.0 2.0 0.00 0.47 0.00 97 1009.6
20260510080510 47 143 0.0 2.0 0.00 0.47 0.00 97 1009.6
20260510080028 47 0 0.0 3.0 0.00 0.47 0.00 97 1009.6
20260510075511 47 143 1.0 3.0 0.00 0.52 0.00 97 1009.6
20260510075012 47 0 0.0 0.0 0.00 0.52 0.00 97 1009.6
20260510074531 47 0 0.0 0.0 0.00 0.52 0.00 97 1009.4
20260510074010 47 0 0.0 0.0 0.00 0.52 0.00 97 1009.3
20260510073514 46 0 0.0 0.0 0.00 0.52 0.00 97 1009.3
20260510073028 47 0 0.0 0.0 0.00 0.52 0.00 96 1009.7
20260510072514 47 0 0.0 0.0 0.00 0.52 0.00 97 1009.8
20260510072016 47 0 0.0 0.0 0.00 0.52 0.00 97 1009.6
20260510071540 47 0 0.0 0.0 0.00 0.52 0.00 97 1009.5
20260510071012 47 0 0.0 0.0 0.00 0.52 0.00 96 1009.7
20260510070516 47 0 0.0 0.0 0.00 0.52 0.00 96 1009.7
20260510070031 47 0 0.0 1.0 0.00 0.52 0.00 96 1009.6
20260510065514 47 0 0.0 1.0 0.00 0.60 0.00 96 1009.6
20260510065014 47 0 0.0 1.0 0.00 0.60 0.00 97 1009.8
20260510064528 47 0 0.0 0.0 0.00 0.60 0.00 96 1010.2
20260510064012 47 0 0.0 0.0 0.00 0.60 0.00 96 1010.3
20260510063516 47 0 0.0 0.0 0.00 0.60 0.00 96 1010.3
20260510063029 47 0 0.0 0.0 0.00 0.60 0.00 97 1010.5
20260510062515 47 0 0.0 3.0 0.00 0.60 0.00 96 1010.6
20260510062014 47 0 0.0 2.0 0.00 0.60 0.00 96 1010.3
20260510061541 48 0 0.0 3.0 0.00 0.60 0.00 96 1010.3
20260510061013 48 0 0.0 3.0 0.00 0.60 0.00 96 1010.7
20260510060515 48 144 1.0 2.0 0.00 0.60 0.00 96 1010.8
20260510060029 48 0 0.0 1.0 0.00 0.60 0.00 96 1010.9
20260510055511 48 0 0.0 1.0 0.00 0.63 0.00 96 1011.0
20260510055011 48 0 0.0 1.0 0.00 0.63 0.00 96 1011.1
20260510054528 48 0 0.0 1.0 0.00 0.63 0.00 96 1011.2
20260510054014 48 0 0.0 0.0 0.00 0.63 0.00 96 1011.3
20260510053514 48 0 0.0 0.0 0.00 0.63 0.00 96 1011.3
20260510053030 48 0 0.0 0.0 0.00 0.63 0.00 96 1011.1
20260510052513 48 0 0.0 2.0 0.00 0.63 0.00 97 1011.2
20260510052011 48 0 0.0 2.0 0.00 0.63 0.00 97 1011.0
20260510051531 48 0 0.0 1.0 0.00 0.63 0.00 97 1011.3
20260510051014 48 0 0.0 3.0 0.00 0.63 0.00 97 1011.3
20260510050512 48 0 0.0 4.0 0.00 0.63 0.00 96 1011.3
20260510050027 48 340 1.0 5.0 0.00 0.63 0.00 96 1011.2
20260510045512 48 329 3.0 6.0 0.00 0.63 0.00 97 1011.3
20260510045013 47 315 2.0 6.0 0.00 0.63 0.00 97 1011.0
20260510044528 45 338 3.0 6.0 0.00 0.63 0.00 96 1010.8
20260510044014 45 0 0.0 0.0 0.00 0.63 0.00 96 1010.1
20260510043513 45 0 0.0 0.0 0.00 0.63 0.00 95 1010.1
20260510043028 45 0 0.0 0.0 0.00 0.63 0.00 95 1010.1
20260510042513 45 0 0.0 0.0 0.00 0.63 0.00 95 1010.2
20260510042013 45 0 0.0 0.0 0.00 0.63 0.00 95 1010.2
20260510041527 45 0 0.0 1.0 0.00 0.63 0.00 95 1010.4
20260510041011 45 0 0.0 1.0 0.00 0.63 0.00 95 1010.3
20260510040512 45 0 0.0 1.0 0.00 0.63 0.00 95 1010.3
20260510040030 45 0 0.0 2.0 0.00 0.63 0.00 95 1010.2
20260510035514 45 0 0.0 2.0 0.00 0.63 0.63 95 1010.2
20260510035013 45 151 0.0 2.0 0.00 0.63 0.63 95 1010.3
20260510034529 46 0 0.0 0.0 0.00 0.63 0.63 95 1010.2
20260510034013 46 0 0.0 0.0 0.00 0.63 0.63 95 1010.0
20260510033511 46 0 0.0 0.0 0.00 0.63 0.63 95 1009.8
20260510033029 46 0 0.0 0.0 0.00 0.63 0.63 95 1009.7
20260510032513 46 0 0.0 0.0 0.00 0.63 0.63 95 1009.5
20260510032015 46 0 0.0 0.0 0.00 0.63 0.63 95 1009.6
20260510031542 46 0 0.0 0.0 0.00 0.63 0.63 95 1009.6
20260510031013 46 0 0.0 0.0 0.00 0.63 0.63 95 1009.6
20260510030513 46 0 0.0 0.0 0.00 0.63 0.63 95 1009.7
20260510030030 46 0 0.0 0.0 0.00 0.63 0.63 94 1009.7
20260510025512 46 0 0.0 0.0 0.00 0.63 0.63 95 1009.7
20260510025013 47 0 0.0 0.0 0.00 0.63 0.63 94 1009.8
20260510024536 47 0 0.0 0.0 0.00 0.63 0.63 94 1009.7
20260510024013 46 0 0.0 0.0 0.00 0.63 0.63 94 1009.7
20260510023512 46 0 0.0 1.0 0.00 0.63 0.63 94 1009.8
20260510023030 47 0 0.0 1.0 0.00 0.63 0.63 94 1009.8
20260510022517 47 0 0.0 1.0 0.00 0.63 0.63 94 1009.6
20260510022014 47 0 0.0 0.0 0.00 0.63 0.63 94 1009.6
20260510021529 47 0 0.0 2.0 0.00 0.63 0.63 94 1009.5
20260510021013 47 0 0.0 2.0 0.00 0.63 0.63 94 1009.5
20260510020514 47 151 0.0 2.0 0.00 0.63 0.63 93 1009.5
20260510020028 48 151 1.0 2.0 0.00 0.63 0.63 93 1009.6
20260510015513 48 151 0.0 2.0 0.00 0.63 0.63 93 1009.6
20260510015011 49 0 0.0 1.0 0.01 0.63 0.63 93 1009.6
20260510014534 49 0 0.0 1.0 0.01 0.63 0.63 93 1009.5
20260510014012 49 0 0.0 0.0 0.01 0.63 0.63 93 1009.3
20260510013512 49 0 0.0 0.0 0.01 0.63 0.63 93 1009.3
20260510013029 49 0 0.0 0.0 0.01 0.63 0.63 93 1009.3
20260510012511 49 0 0.0 1.0 0.01 0.63 0.63 92 1009.5
20260510012009 49 0 0.0 1.0 0.01 0.63 0.63 92 1009.6
20260510011536 50 0 0.0 1.0 0.01 0.63 0.63 92 1009.6
20260510011012 50 0 0.0 0.0 0.01 0.63 0.63 92 1009.3
20260510010511 50 0 0.0 0.0 0.01 0.63 0.63 92 1009.3
20260510010031 50 0 0.0 0.0 0.01 0.63 0.63 92 1009.2
20260510005511 50 0 0.0 1.0 0.01 0.63 0.63 92 1009.2
20260510005012 50 0 0.0 1.0 0.00 0.62 0.62 92 1009.1
20260510004527 51 0 0.0 2.0 0.00 0.62 0.62 92 1009.0
20260510004009 51 151 0.0 5.0 0.00 0.62 0.62 93 1008.9
20260510003511 51 151 0.0 5.0 0.00 0.62 0.62 93 1008.8
20260510003054 51 152 1.0 4.0 0.00 0.62 0.62 92 1008.8
20260510002513 51 171 0.0 8.0 0.00 0.62 0.62 92 1008.9
20260510002011 51 171 3.0 8.0 0.00 0.62 0.62 92 1008.9
20260510001531 51 196 4.0 8.0 0.00 0.62 0.62 92 1008.8
20260510001014 52 189 3.0 7.0 0.00 0.62 0.62 92 1008.9
20260510000513 52 198 3.0 6.0 0.00 0.62 0.62 92 1008.9
20260510000028 52 196 2.0 7.0 0.00 0.62 0.62 92 1008.7
20260509235512 52 202 3.0 7.0 0.00 0.62 0.62 92 1008.7
20260509235011 53 175 2.0 5.0 0.00 0.62 0.62 91 1008.6
20260509234530 53 161 1.0 4.0 0.00 0.62 0.62 91 1008.5
20260509234012 53 160 0.0 2.0 0.00 0.62 0.62 91 1008.3
20260509233511 54 0 0.0 1.0 0.00 0.62 0.62 91 1008.5
20260509233029 54 0 0.0 2.0 0.00 0.62 0.62 92 1008.4
20260509232511 54 0 0.0 4.0 0.00 0.62 0.62 92 1008.1
20260509232010 54 0 0.0 4.0 0.00 0.62 0.62 92 1007.9
20260509231532 54 0 0.0 5.0 0.00 0.62 0.62 92 1008.0
20260509231015 54 0 1.0 7.0 0.00 0.62 0.62 92 1008.2
20260509230511 54 184 1.0 7.0 0.00 0.62 0.62 91 1008.3
20260509230034 54 185 3.0 7.0 0.00 0.62 0.62 91 1008.3
20260509225512 54 207 3.0 6.0 0.00 0.62 0.62 91 1008.4
20260509225010 55 180 2.0 5.0 0.00 0.62 0.62 92 1008.2
20260509224529 55 213 2.0 6.0 0.00 0.62 0.62 92 1008.1
20260509224010 55 191 2.0 6.0 0.00 0.62 0.62 92 1007.9
20260509223511 55 201 2.0 6.0 0.00 0.62 0.62 93 1007.8
20260509223030 55 186 4.0 7.0 0.00 0.62 0.62 93 1007.8
20260509222510 55 192 2.0 7.0 0.00 0.62 0.62 94 1007.9
20260509222009 54 192 3.0 9.0 0.00 0.62 0.62 94 1007.9
20260509221526 54 191 5.0 9.0 0.00 0.62 0.62 95 1007.9
20260509221010 54 185 2.0 5.0 0.00 0.62 0.62 95 1008.0
20260509220514 53 161 2.0 6.0 0.00 0.62 0.62 95 1008.3
20260509220030 53 153 2.0 6.0 0.00 0.62 0.62 95 1008.3
20260509215512 53 159 2.0 6.0 0.00 0.62 0.62 95 1008.4
20260509215013 53 178 2.0 6.0 0.00 0.62 0.62 95 1008.5
20260509214530 53 191 1.0 6.0 0.00 0.62 0.62 95 1008.6
20260509214011 53 168 2.0 5.0 0.00 0.62 0.62 95 1008.7
20260509213513 53 167 2.0 5.0 0.00 0.62 0.62 95 1008.8
20260509213026 53 144 0.0 6.0 0.00 0.62 0.62 95 1008.8
20260509212510 53 169 2.0 9.0 0.00 0.62 0.62 95 1008.8
20260509212013 53 196 2.0 9.0 0.00 0.62 0.62 95 1008.8
20260509211528 52 187 2.0 7.0 0.01 0.62 0.62 95 1008.7
20260509211012 53 194 3.0 7.0 0.01 0.62 0.62 95 1008.8
20260509210514 52 172 1.0 7.0 0.02 0.62 0.62 95 1008.9
20260509210028 52 180 1.0 4.0 0.02 0.62 0.62 95 1008.9
20260509205511 52 188 1.0 6.0 0.02 0.62 0.62 95 1008.9
20260509205011 52 192 2.0 6.0 0.02 0.62 0.62 95 1008.9
20260509204530 52 202 2.0 7.0 0.02 0.62 0.62 94 1009.0
20260509204012 52 186 0.0 7.0 0.02 0.62 0.62 94 1009.0
20260509203511 52 187 3.0 7.0 0.02 0.62 0.62 94 1009.0
20260509203034 52 198 2.0 7.0 0.03 0.62 0.62 95 1009.1
20260509202510 52 195 2.0 5.0 0.03 0.62 0.62 95 1009.1
20260509202011 52 191 2.0 5.0 0.03 0.62 0.62 95 1009.1
20260509201530 52 205 2.0 6.0 0.02 0.61 0.61 95 1009.1
20260509201011 51 194 2.0 8.0 0.02 0.61 0.61 95 1009.1
20260509200511 51 183 5.0 9.0 0.01 0.60 0.60 94 1009.1
20260509200028 51 207 4.0 10.0 0.01 0.60 0.60 95 1009.2
20260509195513 51 238 5.0 10.0 0.01 0.60 0.60 95 1009.3
20260509195010 51 226 4.0 9.0 0.02 0.60 0.60 95 1009.4
20260509194533 51 205 5.0 12.0 0.02 0.60 0.60 95 1009.4
20260509194015 51 213 5.0 12.0 0.02 0.60 0.60 94 1009.4
20260509193513 51 203 4.0 10.0 0.02 0.60 0.60 95 1009.6
20260509193030 51 200 7.0 11.0 0.01 0.58 0.58 94 1009.6
20260509192511 51 195 4.0 11.0 0.01 0.58 0.58 95 1009.6
20260509192011 51 192 4.0 10.0 0.01 0.58 0.58 95 1009.6
20260509191528 51 178 4.0 10.0 0.01 0.58 0.58 95 1009.6
20260509191015 52 170 4.0 11.0 0.01 0.58 0.58 95 1009.6
20260509190513 51 203 5.0 13.0 0.01 0.58 0.58 95 1009.6
20260509190029 51 165 5.0 13.0 0.01 0.58 0.58 95 1009.7
20260509185513 51 186 7.0 13.0 0.01 0.58 0.58 95 1009.8
20260509185010 51 230 4.0 10.0 0.00 0.58 0.58 95 1009.8
20260509184528 51 191 6.0 10.0 0.00 0.58 0.58 95 1009.8
20260509184012 51 253 7.0 13.0 0.01 0.58 0.58 95 1009.8
20260509183510 51 194 6.0 13.0 0.02 0.58 0.58 95 1009.9
20260509183028 51 194 7.0 13.0 0.02 0.58 0.58 95 1009.9
20260509182514 51 206 6.0 13.0 0.02 0.58 0.58 95 1009.9
20260509182015 51 178 7.0 13.0 0.03 0.58 0.58 95 1009.7
20260509181541 51 196 6.0 12.0 0.04 0.58 0.58 96 1009.7
20260509181014 51 218 6.0 11.0 0.04 0.58 0.58 95 1009.7
20260509180513 51 195 4.0 13.0 0.04 0.58 0.58 96 1009.7
20260509180028 51 173 5.0 13.0 0.04 0.58 0.58 96 1009.6
20260509175513 51 168 6.0 14.0 0.04 0.58 0.58 96 1009.6
20260509175011 51 200 6.0 14.0 0.05 0.58 0.58 96 1009.6
20260509174526 51 185 4.0 16.0 0.04 0.58 0.57 96 1009.6
20260509174013 51 201 6.0 14.0 0.04 0.58 0.57 96 1009.6
20260509173512 51 196 5.0 14.0 0.04 0.57 0.56 96 1009.6
20260509173028 51 195 4.0 12.0 0.04 0.57 0.56 96 1009.6
20260509172513 51 223 4.0 9.0 0.03 0.56 0.55 96 1009.7
20260509172013 51 160 2.0 11.0 0.03 0.56 0.55 96 1009.6
20260509171528 51 198 3.0 10.0 0.02 0.55 0.54 96 1009.6
20260509171014 51 237 4.0 10.0 0.03 0.55 0.54 96 1009.7
20260509170512 51 196 3.0 10.0 0.03 0.55 0.54 96 1009.6
20260509170030 51 158 4.0 10.0 0.04 0.55 0.54 96 1009.6
20260509165511 51 225 3.0 8.0 0.04 0.55 0.54 96 1009.7
20260509165011 50 172 3.0 8.0 0.03 0.54 0.52 96 1009.7
20260509164530 50 193 3.0 8.0 0.04 0.54 0.52 96 1009.8
20260509164011 50 163 3.0 8.0 0.04 0.54 0.52 96 1009.7
20260509163515 50 215 3.0 8.0 0.04 0.52 0.52 96 1009.8
20260509163032 50 186 3.0 8.0 0.04 0.52 0.52 96 1009.7
20260509162513 50 155 3.0 8.0 0.04 0.52 0.52 96 1009.7
20260509162015 50 172 1.0 5.0 0.05 0.52 0.52 97 1009.8
20260509161534 50 154 1.0 5.0 0.06 0.52 0.52 97 1009.8
20260509161014 50 156 1.0 5.0 0.05 0.52 0.51 96 1009.8
20260509160515 50 138 1.0 4.0 0.06 0.51 0.50 97 1009.8
20260509160030 50 188 0.0 4.0 0.06 0.51 0.50 97 1010.0
20260509155511 50 188 1.0 4.0 0.07 0.51 0.50 97 1010.1
20260509155011 50 0 0.0 5.0 0.08 0.51 0.50 96 1010.1
20260509154530 50 190 1.0 5.0 0.08 0.50 0.49 97 1010.2
20260509154011 50 206 0.0 4.0 0.09 0.50 0.49 96 1010.2
20260509153514 50 0 0.0 4.0 0.08 0.49 0.48 97 1010.3
20260509153028 50 0 1.0 5.0 0.09 0.49 0.48 97 1010.3
20260509152512 50 0 2.0 5.0 0.10 0.49 0.48 96 1010.4
20260509152012 50 145 1.0 4.0 0.10 0.48 0.47 97 1010.4
20260509151530 50 166 0.0 3.0 0.10 0.47 0.46 97 1010.5
20260509151011 50 0 0.0 3.0 0.09 0.46 0.45 97 1010.5
20260509150512 50 0 0.0 3.0 0.09 0.45 0.44 96 1010.6
20260509150028 50 0 0.0 3.0 0.10 0.45 0.44 96 1010.6
20260509145515 49 167 0.0 3.0 0.09 0.44 0.43 97 1010.6
20260509145011 49 0 0.0 1.0 0.09 0.43 0.42 97 1010.7
20260509144536 49 0 0.0 3.0 0.09 0.42 0.41 97 1010.7
20260509144012 49 0 0.0 3.0 0.08 0.41 0.40 97 1010.7
20260509143512 49 0 0.0 3.0 0.09 0.41 0.40 97 1010.8
20260509143030 49 0 0.0 3.0 0.09 0.40 0.39 97 1010.7
20260509142511 49 167 0.0 1.0 0.08 0.39 0.38 97 1010.7
20260509142013 49 0 0.0 3.0 0.07 0.38 0.37 97 1010.8
20260509141528 49 0 0.0 3.0 0.06 0.37 0.36 97 1010.8
20260509141017 49 0 1.0 3.0 0.06 0.36 0.35 96 1010.7
20260509140512 49 0 0.0 0.0 0.06 0.36 0.35 97 1010.7
20260509140030 49 0 0.0 0.0 0.05 0.35 0.34 97 1010.6
20260509135512 49 0 0.0 0.0 0.05 0.34 0.33 97 1010.5
20260509135013 49 0 0.0 0.0 0.05 0.34 0.33 97 1010.6
20260509134529 49 0 0.0 0.0 0.04 0.33 0.32 97 1010.5
20260509134012 49 0 0.0 0.0 0.04 0.33 0.32 97 1010.4
20260509133512 49 0 0.0 0.0 0.04 0.32 0.31 97 1010.3
20260509133030 49 0 0.0 0.0 0.03 0.31 0.30 97 1010.3
20260509132514 48 0 0.0 0.0 0.03 0.31 0.30 97 1010.3
20260509132013 48 0 0.0 0.0 0.04 0.31 0.30 97 1010.3
20260509131528 48 0 0.0 0.0 0.04 0.31 0.30 97 1010.4
20260509131014 48 0 0.0 0.0 0.03 0.30 0.29 97 1010.4
20260509130513 48 0 0.0 1.0 0.03 0.30 0.29 97 1010.3
20260509130028 48 0 0.0 1.0 0.03 0.30 0.29 97 1010.4
20260509125512 48 0 0.0 0.0 0.02 0.29 0.28 97 1010.4
20260509125012 48 0 0.0 0.0 0.02 0.29 0.28 97 1010.5
20260509124527 48 0 0.0 0.0 0.02 0.29 0.28 97 1010.6
20260509124014 48 0 0.0 0.0 0.01 0.28 0.27 97 1010.6
20260509123512 48 0 0.0 1.0 0.01 0.28 0.27 97 1010.5
20260509123030 48 0 0.0 0.0 0.01 0.28 0.27 97 1010.6
20260509122513 48 0 0.0 0.0 0.01 0.28 0.27 97 1010.4
20260509122012 48 0 0.0 0.0 0.00 0.27 0.26 97 1010.4
20260509121530 47 0 0.0 0.0 0.00 0.27 0.26 97 1010.5
20260509121012 47 0 0.0 0.0 0.00 0.27 0.26 97 1010.5
20260509120511 47 0 0.0 0.0 0.00 0.27 0.26 97 1010.5
20260509120030 47 0 0.0 0.0 0.00 0.27 0.26 97 1010.6
20260509115511 47 0 0.0 1.0 0.00 0.27 0.26 97 1010.6
20260509115011 47 0 0.0 1.0 0.00 0.27 0.26 97 1010.7
20260509114528 47 0 0.0 0.0 0.00 0.27 0.26 97 1010.7
20260509114012 47 0 0.0 0.0 0.00 0.27 0.26 97 1010.7
20260509113514 47 0 0.0 0.0 0.00 0.27 0.26 97 1010.7
20260509113033 47 0 0.0 0.0 0.00 0.27 0.26 97 1010.7
20260509112513 47 0 0.0 0.0 0.00 0.27 0.26 97 1010.8
20260509112010 46 0 0.0 0.0 0.00 0.27 0.26 97 1010.9
20260509111011 46 0 0.0 0.0 0.01 0.27 0.26 97 1010.8
20260509110512 46 0 0.0 0.0 0.01 0.27 0.26 97 1010.8
20260509110034 46 0 0.0 0.0 0.02 0.27 0.26 97 1010.9
20260509105513 46 0 0.0 0.0 0.02 0.27 0.26 97 1010.8
20260509105012 46 0 0.0 0.0 0.02 0.27 0.26 97 1010.9
20260509104537 46 0 0.0 0.0 0.03 0.27 0.26 97 1010.8
20260509104014 46 0 0.0 0.0 0.03 0.27 0.26 96 1010.9
20260509103511 46 0 0.0 0.0 0.04 0.27 0.26 96 1010.8
20260509103028 46 0 0.0 0.0 0.04 0.27 0.26 96 1010.8
20260509102510 46 0 0.0 0.0 0.04 0.27 0.26 96 1010.7